Wetterdaten: Dienstag, 24.11.2015
Datum Zeit Auen-Temp. Temp gefhlt Luftfeuchte Luftdruck Regen Wind Richtung Richtung Taupunkt Windben
24.11.2015 00:00 -9,6 C -9,9 C 84 % 1025,7 hPa 0,0 mm 0,0 km/h (0 Bft) S-SO 157 -11,8 C 0,0 km/h (0 Bft)
24.11.2015 00:05 -9,7 C -10,0 C 84 % 1025,7 hPa 0,0 mm 0,0 km/h (0 Bft) S-SO 157 -11,9 C 0,0 km/h (0 Bft)
24.11.2015 00:10 -9,8 C -10,1 C 83 % 1025,7 hPa 0,0 mm 0,0 km/h (0 Bft) S-SO 157 -12,1 C 0,0 km/h (0 Bft)
24.11.2015 00:15 -9,7 C -10,0 C 83 % 1025,8 hPa 0,0 mm 0,0 km/h (0 Bft) S-SO 157 -12,0 C 0,0 km/h (0 Bft)
24.11.2015 00:20 -9,5 C -10,0 C 83 % 1025,8 hPa 0,0 mm 0,0 km/h (0 Bft) S-SO 157 -11,8 C 0,0 km/h (0 Bft)
24.11.2015 00:25 -9,6 C -10,1 C 83 % 1025,8 hPa 0,0 mm 0,0 km/h (0 Bft) S-SO 157 -11,9 C 0,0 km/h (0 Bft)
24.11.2015 00:30 -9,7 C -10,2 C 83 % 1025,8 hPa 0,0 mm 0,0 km/h (0 Bft) S-SO 157 -12,0 C 0,0 km/h (0 Bft)
24.11.2015 00:35 -10,1 C -10,5 C 83 % 1025,8 hPa 0,0 mm 0,0 km/h (0 Bft) S-SO 157 -12,4 C 0,0 km/h (0 Bft)
24.11.2015 00:40 -10,1 C -10,6 C 83 % 1025,8 hPa 0,0 mm 0,0 km/h (0 Bft) S-SO 157 -12,4 C 0,0 km/h (0 Bft)
24.11.2015 00:45 -10,2 C -10,6 C 83 % 1025,8 hPa 0,0 mm 0,0 km/h (0 Bft) S-SO 157 -12,5 C 0,0 km/h (0 Bft)
24.11.2015 00:50 -9,7 C -10,3 C 83 % 1025,8 hPa 0,0 mm 0,0 km/h (0 Bft) S-SO 157 -12,0 C 0,0 km/h (0 Bft)
24.11.2015 00:55 -9,9 C -10,4 C 83 % 1025,6 hPa 0,0 mm 0,0 km/h (0 Bft) S-SO 157 -12,2 C 0,0 km/h (0 Bft)
24.11.2015 01:00 -9,9 C -10,4 C 83 % 1025,6 hPa 0,0 mm 0,0 km/h (0 Bft) S-SW 202 -12,2 C 0,0 km/h (0 Bft)
24.11.2015 01:05 -9,9 C -10,4 C 83 % 1025,6 hPa 0,0 mm 0,0 km/h (0 Bft) S-SW 202 -12,2 C 0,0 km/h (0 Bft)
24.11.2015 01:10 -10,2 C -10,6 C 83 % 1025,6 hPa 0,0 mm 0,0 km/h (0 Bft) S-SW 202 -12,5 C 0,0 km/h (0 Bft)
24.11.2015 01:15 -10,3 C -10,7 C 82 % 1025,4 hPa 0,0 mm 0,0 km/h (0 Bft) S-SW 202 -12,8 C 0,0 km/h (0 Bft)
24.11.2015 01:20 -10,3 C -10,8 C 82 % 1025,4 hPa 0,0 mm 0,0 km/h (0 Bft) S-SW 202 -12,8 C 0,0 km/h (0 Bft)
24.11.2015 01:25 -10,1 C -10,7 C 82 % 1025,4 hPa 0,0 mm 0,0 km/h (0 Bft) S 180 -12,6 C 0,0 km/h (0 Bft)
24.11.2015 01:30 -10,1 C -10,7 C 82 % 1025,4 hPa 0,0 mm 0,0 km/h (0 Bft) S-SW 202 -12,6 C 0,0 km/h (0 Bft)
24.11.2015 01:35 -10,2 C -10,8 C 82 % 1025,5 hPa 0,0 mm 0,0 km/h (0 Bft) S-SW 202 -12,7 C 0,0 km/h (0 Bft)
24.11.2015 01:40 -10,0 C -10,7 C 82 % 1025,5 hPa 0,0 mm 0,0 km/h (0 Bft) S-SW 202 -12,5 C 0,0 km/h (0 Bft)
24.11.2015 01:45 -10,2 C -10,7 C 82 % 1025,5 hPa 0,0 mm 0,0 km/h (0 Bft) S-SW 202 -12,7 C 0,0 km/h (0 Bft)
24.11.2015 01:50 -10,7 C -11,1 C 82 % 1025,5 hPa 0,0 mm 0,0 km/h (0 Bft) S-SW 202 -13,2 C 0,0 km/h (0 Bft)
24.11.2015 01:55 -10,8 C -11,2 C 82 % 1025,5 hPa 0,0 mm 0,0 km/h (0 Bft) S-SW 202 -13,3 C 0,0 km/h (0 Bft)
24.11.2015 02:00 -10,2 C -10,8 C 82 % 1025,5 hPa 0,0 mm 0,0 km/h (0 Bft) S-SW 202 -12,7 C 0,0 km/h (0 Bft)
24.11.2015 02:05 -10,3 C -10,8 C 82 % 1025,5 hPa 0,0 mm 0,0 km/h (0 Bft) S-SW 202 -12,8 C 0,0 km/h (0 Bft)
24.11.2015 02:10 -10,0 C -10,6 C 82 % 1025,5 hPa 0,0 mm 0,0 km/h (0 Bft) SO 135 -12,5 C 0,0 km/h (0 Bft)
24.11.2015 02:15 -10,2 C -10,7 C 82 % 1025,6 hPa 0,0 mm 0,0 km/h (0 Bft) S 180 -12,7 C 0,0 km/h (0 Bft)
24.11.2015 02:20 -10,0 C -10,5 C 83 % 1025,6 hPa 0,0 mm 0,0 km/h (0 Bft) S 180 -12,3 C 0,0 km/h (0 Bft)
24.11.2015 02:25 -10,5 C -10,8 C 82 % 1025,6 hPa 0,0 mm 0,0 km/h (0 Bft) S 180 -13,0 C 0,0 km/h (0 Bft)
24.11.2015 02:30 -10,4 C -10,8 C 82 % 1025,6 hPa 0,0 mm 0,0 km/h (0 Bft) S 180 -12,9 C 0,0 km/h (0 Bft)
24.11.2015 02:35 -10,6 C -10,9 C 82 % 1025,3 hPa 0,0 mm 0,0 km/h (0 Bft) S 180 -13,1 C 0,0 km/h (0 Bft)
24.11.2015 02:40 -10,8 C -11,1 C 82 % 1025,3 hPa 0,0 mm 0,0 km/h (0 Bft) S 180 -13,3 C 0,0 km/h (0 Bft)
24.11.2015 02:45 -10,9 C -11,2 C 82 % 1025,3 hPa 0,0 mm 0,0 km/h (0 Bft) S 180 -13,4 C 0,0 km/h (0 Bft)
24.11.2015 02:50 -10,1 C -10,6 C 82 % 1025,3 hPa 0,0 mm 0,0 km/h (0 Bft) S 180 -12,6 C 0,0 km/h (0 Bft)
24.11.2015 02:55 -9,9 C -10,5 C 82 % 1025,4 hPa 0,0 mm 0,0 km/h (0 Bft) S 180 -12,4 C 0,0 km/h (0 Bft)
24.11.2015 03:00 -10,0 C -10,6 C 83 % 1025,4 hPa 0,0 mm 0,0 km/h (0 Bft) S 180 -12,3 C 0,0 km/h (0 Bft)
24.11.2015 03:05 -10,3 C -10,8 C 82 % 1025,4 hPa 0,0 mm 0,0 km/h (0 Bft) S 180 -12,8 C 0,0 km/h (0 Bft)
24.11.2015 03:10 -10,7 C -11,1 C 82 % 1025,4 hPa 0,0 mm 0,0 km/h (0 Bft) S 180 -13,2 C 0,0 km/h (0 Bft)
24.11.2015 03:15 -10,8 C -11,1 C 82 % 1025,2 hPa 0,0 mm 0,0 km/h (0 Bft) W-SW 247 -13,3 C 0,0 km/h (0 Bft)
24.11.2015 03:20 -10,6 C -11,1 C 82 % 1025,2 hPa 0,0 mm 0,0 km/h (0 Bft) SW 225 -13,1 C 0,0 km/h (0 Bft)
24.11.2015 03:25 -10,6 C -11,1 C 82 % 1025,2 hPa 0,0 mm 0,0 km/h (0 Bft) SW 225 -13,1 C 0,0 km/h (0 Bft)
24.11.2015 03:30 -10,6 C -11,1 C 82 % 1025,2 hPa 0,0 mm 0,0 km/h (0 Bft) W-SW 247 -13,1 C 0,0 km/h (0 Bft)
24.11.2015 03:35 -10,6 C -11,1 C 81 % 1025,2 hPa 0,0 mm 0,0 km/h (0 Bft) W-SW 247 -13,2 C 0,0 km/h (0 Bft)
24.11.2015 03:40 -10,7 C -11,2 C 81 % 1025,2 hPa 0,0 mm 0,0 km/h (0 Bft) SW 225 -13,3 C 0,0 km/h (0 Bft)
24.11.2015 03:45 -10,6 C -11,1 C 82 % 1025,2 hPa 0,0 mm 0,0 km/h (0 Bft) SW 225 -13,1 C 0,0 km/h (0 Bft)
24.11.2015 03:50 -10,8 C -11,3 C 81 % 1025,2 hPa 0,0 mm 0,0 km/h (0 Bft) W-SW 247 -13,4 C 0,0 km/h (0 Bft)
24.11.2015 03:55 -11,1 C -11,5 C 81 % 1024,9 hPa 0,0 mm 0,0 km/h (0 Bft) W-SW 247 -13,7 C 0,0 km/h (0 Bft)
24.11.2015 04:00 -11,1 C -11,5 C 81 % 1024,9 hPa 0,0 mm 0,0 km/h (0 Bft) W-SW 247 -13,7 C 0,0 km/h (0 Bft)
24.11.2015 04:05 -11,1 C -11,6 C 81 % 1024,9 hPa 0,0 mm 0,0 km/h (0 Bft) W-SW 247 -13,7 C 0,0 km/h (0 Bft)
24.11.2015 04:10 -11,4 C -11,7 C 81 % 1024,9 hPa 0,0 mm 0,0 km/h (0 Bft) W-SW 247 -14,0 C 0,0 km/h (0 Bft)
24.11.2015 04:15 -11,2 C -11,6 C 81 % 1024,8 hPa 0,0 mm 0,0 km/h (0 Bft) W-SW 247 -13,8 C 0,0 km/h (0 Bft)
24.11.2015 04:20 -9,9 C -10,7 C 82 % 1024,8 hPa 0,0 mm 0,0 km/h (0 Bft) S 180 -12,4 C 0,0 km/h (0 Bft)
24.11.2015 04:25 -9,7 C -10,4 C 80 % 1024,8 hPa 0,0 mm 0,0 km/h (0 Bft) S-SO 157 -12,5 C 0,0 km/h (0 Bft)
24.11.2015 04:30 -9,9 C -10,5 C 82 % 1024,8 hPa 0,0 mm 0,0 km/h (0 Bft) S-SO 157 -12,4 C 0,0 km/h (0 Bft)
24.11.2015 04:35 -10,1 C -10,7 C 82 % 1024,8 hPa 0,0 mm 0,0 km/h (0 Bft) SW 225 -12,6 C 0,0 km/h (0 Bft)
24.11.2015 04:40 -10,3 C -10,9 C 82 % 1024,8 hPa 0,0 mm 0,0 km/h (0 Bft) SW 225 -12,8 C 0,0 km/h (0 Bft)
24.11.2015 04:45 -10,5 C -11,0 C 82 % 1024,8 hPa 0,0 mm 0,0 km/h (0 Bft) SW 225 -13,0 C 0,0 km/h (0 Bft)
24.11.2015 04:50 -10,8 C -11,2 C 81 % 1024,8 hPa 0,0 mm 0,0 km/h (0 Bft) SW 225 -13,4 C 0,0 km/h (0 Bft)
24.11.2015 04:55 -11,0 C -11,5 C 81 % 1024,9 hPa 0,0 mm 0,0 km/h (0 Bft) SW 225 -13,6 C 0,0 km/h (0 Bft)
24.11.2015 05:00 -10,7 C -11,3 C 81 % 1024,9 hPa 0,0 mm 0,0 km/h (0 Bft) SW 225 -13,3 C 0,0 km/h (0 Bft)
24.11.2015 05:05 -11,0 C -11,6 C 81 % 1024,9 hPa 0,0 mm 0,0 km/h (0 Bft) SW 225 -13,6 C 0,0 km/h (0 Bft)
24.11.2015 05:10 -10,1 C -11,0 C 82 % 1024,9 hPa 0,0 mm 0,0 km/h (0 Bft) SW 225 -12,6 C 0,0 km/h (0 Bft)
24.11.2015 05:15 -10,6 C -11,3 C 81 % 1024,9 hPa 0,0 mm 0,0 km/h (0 Bft) SW 225 -13,2 C 0,0 km/h (0 Bft)
24.11.2015 05:20 -10,1 C -10,9 C 82 % 1024,9 hPa 0,0 mm 0,0 km/h (0 Bft) SW 225 -12,6 C 0,0 km/h (0 Bft)
24.11.2015 05:25 -9,7 C -10,6 C 82 % 1024,9 hPa 0,0 mm 0,0 km/h (0 Bft) SW 225 -12,2 C 0,0 km/h (0 Bft)
24.11.2015 05:30 -10,6 C -11,2 C 82 % 1024,9 hPa 0,0 mm 0,0 km/h (0 Bft) SW 225 -13,1 C 0,0 km/h (0 Bft)
24.11.2015 05:35 -10,9 C -11,4 C 81 % 1024,9 hPa 0,0 mm 0,0 km/h (0 Bft) SW 225 -13,5 C 0,0 km/h (0 Bft)
24.11.2015 05:40 -10,8 C -11,4 C 81 % 1024,9 hPa 0,0 mm 0,0 km/h (0 Bft) SW 225 -13,4 C 0,0 km/h (0 Bft)
24.11.2015 05:42 -10,8 C -11,4 C 81 % 1024,9 hPa 0,0 mm 0,0 km/h (0 Bft) SW 225 -13,4 C 0,0 km/h (0 Bft)
24.11.2015 05:45 -11,2 C -11,7 C 81 % 1024,9 hPa 0,0 mm 0,0 km/h (0 Bft) SW 225 -13,8 C 0,0 km/h (0 Bft)
24.11.2015 05:50 -11,4 C -11,9 C 81 % 1024,9 hPa 0,0 mm 0,0 km/h (0 Bft) SW 225 -14,0 C 0,0 km/h (0 Bft)
24.11.2015 05:55 -11,5 C -12,0 C 80 % 1024,6 hPa 0,0 mm 0,0 km/h (0 Bft) SW 225 -14,2 C 0,0 km/h (0 Bft)
24.11.2015 06:00 -10,8 C -11,5 C 81 % 1024,6 hPa 0,0 mm 0,0 km/h (0 Bft) SW 225 -13,4 C 0,0 km/h (0 Bft)
24.11.2015 06:05 -11,3 C -11,8 C 81 % 1024,6 hPa 0,0 mm 0,0 km/h (0 Bft) SW 225 -13,9 C 0,0 km/h (0 Bft)
24.11.2015 06:10 -11,2 C -11,7 C 81 % 1024,6 hPa 0,0 mm 0,0 km/h (0 Bft) SW 225 -13,8 C 0,0 km/h (0 Bft)
24.11.2015 06:15 -11,0 C -11,6 C 81 % 1024,6 hPa 0,0 mm 0,0 km/h (0 Bft) SW 225 -13,6 C 0,0 km/h (0 Bft)
24.11.2015 06:20 -11,0 C -11,7 C 81 % 1024,6 hPa 0,0 mm 0,0 km/h (0 Bft) SW 225 -13,6 C 0,0 km/h (0 Bft)
24.11.2015 06:25 -11,2 C -11,7 C 81 % 1024,6 hPa 0,0 mm 0,0 km/h (0 Bft) SW 225 -13,8 C 0,0 km/h (0 Bft)
24.11.2015 06:30 -11,1 C -11,7 C 81 % 1024,6 hPa 0,0 mm 0,0 km/h (0 Bft) SW 225 -13,7 C 0,0 km/h (0 Bft)
24.11.2015 06:35 -11,3 C -11,8 C 81 % 1024,8 hPa 0,0 mm 0,0 km/h (0 Bft) SW 225 -13,9 C 0,0 km/h (0 Bft)
24.11.2015 06:40 -11,0 C -11,5 C 81 % 1024,8 hPa 0,0 mm 0,0 km/h (0 Bft) SW 225 -13,6 C 0,0 km/h (0 Bft)
24.11.2015 06:45 -10,9 C -11,5 C 81 % 1024,8 hPa 0,0 mm 0,0 km/h (0 Bft) SW 225 -13,5 C 0,0 km/h (0 Bft)
24.11.2015 06:50 -10,6 C -11,3 C 81 % 1024,8 hPa 0,0 mm 0,0 km/h (0 Bft) SW 225 -13,2 C 0,0 km/h (0 Bft)
24.11.2015 06:55 -11,0 C -11,6 C 81 % 1024,8 hPa 0,0 mm 0,0 km/h (0 Bft) SW 225 -13,6 C 0,0 km/h (0 Bft)
24.11.2015 07:00 -11,2 C -11,7 C 81 % 1024,8 hPa 0,0 mm 0,0 km/h (0 Bft) SW 225 -13,8 C 0,0 km/h (0 Bft)
24.11.2015 07:05 -11,2 C -11,7 C 81 % 1024,8 hPa 0,0 mm 0,0 km/h (0 Bft) W-SW 247 -13,8 C 0,0 km/h (0 Bft)
24.11.2015 07:10 -10,5 C -11,1 C 79 % 1024,8 hPa 0,0 mm 0,0 km/h (0 Bft) S 180 -13,4 C 0,0 km/h (0 Bft)
24.11.2015 07:15 -10,5 C -11,2 C 81 % 1024,9 hPa 0,0 mm 0,0 km/h (0 Bft) S 180 -13,1 C 0,0 km/h (0 Bft)
24.11.2015 07:20 -11,2 C -11,6 C 81 % 1024,9 hPa 0,0 mm 0,0 km/h (0 Bft) S 180 -13,8 C 0,0 km/h (0 Bft)
24.11.2015 07:25 -10,9 C -11,3 C 81 % 1024,9 hPa 0,0 mm 0,0 km/h (0 Bft) S 180 -13,5 C 0,0 km/h (0 Bft)
24.11.2015 07:30 -11,0 C -11,4 C 81 % 1024,9 hPa 0,0 mm 0,0 km/h (0 Bft) S 180 -13,6 C 0,0 km/h (0 Bft)
24.11.2015 07:35 -11,1 C -11,5 C 81 % 1024,8 hPa 0,0 mm 0,0 km/h (0 Bft) S 180 -13,7 C 0,0 km/h (0 Bft)
24.11.2015 07:40 -10,8 C -11,4 C 81 % 1024,8 hPa 0,0 mm 0,0 km/h (0 Bft) S 180 -13,4 C 0,0 km/h (0 Bft)
24.11.2015 07:45 -11,1 C -11,6 C 81 % 1024,8 hPa 0,0 mm 0,0 km/h (0 Bft) S 180 -13,7 C 0,0 km/h (0 Bft)
24.11.2015 07:50 -11,2 C -11,7 C 81 % 1024,8 hPa 0,0 mm 0,0 km/h (0 Bft) S-SW 202 -13,8 C 0,0 km/h (0 Bft)
24.11.2015 07:55 -11,5 C -11,9 C 80 % 1024,9 hPa 0,0 mm 0,0 km/h (0 Bft) S-SW 202 -14,2 C 0,0 km/h (0 Bft)
24.11.2015 08:00 -11,4 C -11,8 C 80 % 1024,9 hPa 0,0 mm 0,0 km/h (0 Bft) S-SW 202 -14,1 C 0,0 km/h (0 Bft)
24.11.2015 08:05 -11,5 C -11,9 C 80 % 1024,9 hPa 0,0 mm 0,0 km/h (0 Bft) S-SW 202 -14,2 C 0,0 km/h (0 Bft)
24.11.2015 08:07 -11,5 C -11,9 C 80 % 1026,9 hPa 0,0 mm 0,0 km/h (0 Bft) S-SW 202 -14,2 C 0,0 km/h (0 Bft)
24.11.2015 08:09 -11,5 C -11,9 C 80 % 1026,9 hPa 0,0 mm 0,0 km/h (0 Bft) S-SW 202 -14,2 C 0,0 km/h (0 Bft)
24.11.2015 08:10 -11,5 C -11,9 C 80 % 1027,1 hPa 0,0 mm 0,0 km/h (0 Bft) S-SW 202 -14,2 C 0,0 km/h (0 Bft)
24.11.2015 08:15 -11,3 C -11,8 C 80 % 1027,1 hPa 0,0 mm 0,0 km/h (0 Bft) S-SW 202 -14,0 C 0,0 km/h (0 Bft)
24.11.2015 08:20 -11,2 C -11,7 C 80 % 1027,1 hPa 0,0 mm 0,0 km/h (0 Bft) S-SW 202 -13,9 C 0,0 km/h (0 Bft)
24.11.2015 08:25 -11,3 C -11,7 C 80 % 1027,1 hPa 0,0 mm 0,0 km/h (0 Bft) S-SW 202 -14,0 C 0,0 km/h (0 Bft)
24.11.2015 08:30 -10,8 C -11,3 C 81 % 1027,1 hPa 0,0 mm 0,0 km/h (0 Bft) S-SW 202 -13,4 C 0,0 km/h (0 Bft)
24.11.2015 08:35 -10,8 C -11,3 C 81 % 1027,3 hPa 0,0 mm 0,0 km/h (0 Bft) S-SW 202 -13,4 C 0,0 km/h (0 Bft)
24.11.2015 08:40 -10,8 C -11,2 C 81 % 1027,3 hPa 0,0 mm 0,0 km/h (0 Bft) S-SW 202 -13,4 C 0,0 km/h (0 Bft)
24.11.2015 08:45 -10,9 C -11,2 C 81 % 1027,3 hPa 0,0 mm 0,0 km/h (0 Bft) S-SW 202 -13,5 C 0,0 km/h (0 Bft)
24.11.2015 08:50 -10,7 C -11,0 C 81 % 1027,3 hPa 0,0 mm 0,0 km/h (0 Bft) S-SW 202 -13,3 C 0,0 km/h (0 Bft)
24.11.2015 08:55 -10,3 C -10,7 C 81 % 1027,1 hPa 0,0 mm 0,0 km/h (0 Bft) S-SW 202 -12,9 C 0,0 km/h (0 Bft)
24.11.2015 09:00 -9,8 C -10,3 C 82 % 1027,1 hPa 0,0 mm 0,0 km/h (0 Bft) S-SW 202 -12,3 C 0,0 km/h (0 Bft)
24.11.2015 09:05 -9,7 C -10,0 C 80 % 1027,1 hPa 0,0 mm 0,0 km/h (0 Bft) S-SW 202 -12,5 C 0,0 km/h (0 Bft)
24.11.2015 09:10 -9,7 C -9,9 C 80 % 1027,1 hPa 0,0 mm 0,0 km/h (0 Bft) S-SW 202 -12,5 C 0,0 km/h (0 Bft)
24.11.2015 09:15 -9,6 C -9,8 C 82 % 1026,9 hPa 0,0 mm 0,0 km/h (0 Bft) S-SW 202 -12,1 C 0,0 km/h (0 Bft)
24.11.2015 09:20 -9,3 C -9,6 C 82 % 1026,9 hPa 0,0 mm 0,0 km/h (0 Bft) W-SW 247 -11,8 C 0,0 km/h (0 Bft)
24.11.2015 09:25 -8,9 C -9,3 C 83 % 1026,9 hPa 0,0 mm 0,0 km/h (0 Bft) W-SW 247 -11,2 C 0,0 km/h (0 Bft)
24.11.2015 09:30 -8,7 C -9,0 C 80 % 1026,9 hPa 0,0 mm 0,0 km/h (0 Bft) W-SW 247 -11,5 C 0,0 km/h (0 Bft)
24.11.2015 09:35 -8,7 C -8,8 C 80 % 1026,8 hPa 0,0 mm 0,0 km/h (0 Bft) S 180 -11,5 C 0,0 km/h (0 Bft)
24.11.2015 09:40 -8,5 C -8,7 C 81 % 1026,8 hPa 0,0 mm 0,0 km/h (0 Bft) S 180 -11,2 C 0,0 km/h (0 Bft)
24.11.2015 09:45 -8,4 C -8,3 C 81 % 1026,8 hPa 0,0 mm 0,0 km/h (0 Bft) S 180 -11,1 C 0,0 km/h (0 Bft)
24.11.2015 09:50 -7,8 C -7,7 C 81 % 1026,8 hPa 0,0 mm 0,0 km/h (0 Bft) S 180 -10,5 C 0,0 km/h (0 Bft)
24.11.2015 09:55 -7,5 C -7,5 C 81 % 1026,7 hPa 0,0 mm 0,0 km/h (0 Bft) S 180 -10,2 C 0,0 km/h (0 Bft)
24.11.2015 10:00 -7,9 C -7,7 C 81 % 1026,7 hPa 0,0 mm 0,0 km/h (0 Bft) S 180 -10,6 C 0,0 km/h (0 Bft)
24.11.2015 10:05 -7,5 C -7,6 C 81 % 1026,7 hPa 0,0 mm 0,0 km/h (0 Bft) S 180 -10,2 C 0,0 km/h (0 Bft)
24.11.2015 10:10 -7,3 C -7,4 C 81 % 1026,7 hPa 0,0 mm 0,0 km/h (0 Bft) S 180 -10,0 C 0,0 km/h (0 Bft)
24.11.2015 10:15 -7,1 C -7,0 C 82 % 1026,6 hPa 0,0 mm 0,0 km/h (0 Bft) S 180 -9,6 C 0,0 km/h (0 Bft)
24.11.2015 10:20 -6,6 C -6,8 C 82 % 1026,6 hPa 0,0 mm 0,0 km/h (0 Bft) S 180 -9,1 C 0,0 km/h (0 Bft)
24.11.2015 10:25 -6,3 C -6,6 C 82 % 1026,6 hPa 0,0 mm 0,0 km/h (0 Bft) S 180 -8,9 C 0,0 km/h (0 Bft)
24.11.2015 10:30 -6,2 C -6,6 C 86 % 1026,6 hPa 0,0 mm 0,0 km/h (0 Bft) S 180 -8,1 C 0,0 km/h (0 Bft)
24.11.2015 10:35 -6,2 C -6,6 C 86 % 1026,4 hPa 0,0 mm 0,0 km/h (0 Bft) S 180 -8,1 C 0,0 km/h (0 Bft)
24.11.2015 10:40 -6,0 C -6,1 C 82 % 1026,4 hPa 0,0 mm 0,0 km/h (0 Bft) S 180 -8,6 C 0,0 km/h (0 Bft)
24.11.2015 10:45 -5,6 C -5,9 C 82 % 1026,4 hPa 0,0 mm 0,0 km/h (0 Bft) S 180 -8,2 C 0,0 km/h (0 Bft)
24.11.2015 10:50 -5,3 C -5,5 C 83 % 1026,4 hPa 0,0 mm 0,0 km/h (0 Bft) S 180 -7,7 C 0,0 km/h (0 Bft)
24.11.2015 10:55 -5,0 C -5,3 C 83 % 1026,3 hPa 0,0 mm 0,0 km/h (0 Bft) SO 135 -7,4 C 0,0 km/h (0 Bft)
24.11.2015 11:00 -4,9 C -5,2 C 83 % 1026,3 hPa 0,0 mm 0,0 km/h (0 Bft) S 180 -7,3 C 0,0 km/h (0 Bft)
24.11.2015 11:05 -5,0 C -5,3 C 87 % 1026,3 hPa 0,0 mm 0,0 km/h (0 Bft) S 180 -6,8 C 0,0 km/h (0 Bft)
24.11.2015 11:10 -4,7 C -5,0 C 83 % 1026,3 hPa 0,0 mm 0,0 km/h (0 Bft) S 180 -7,1 C 0,0 km/h (0 Bft)
24.11.2015 11:15 -4,5 C -4,9 C 87 % 1026,3 hPa 0,0 mm 0,0 km/h (0 Bft) S 180 -6,3 C 0,0 km/h (0 Bft)
24.11.2015 11:20 -4,7 C -5,0 C 83 % 1026,3 hPa 0,0 mm 0,0 km/h (0 Bft) S 180 -7,1 C 0,0 km/h (0 Bft)
24.11.2015 11:25 -4,5 C -4,9 C 87 % 1026,3 hPa 0,0 mm 0,0 km/h (0 Bft) S 180 -6,3 C 0,0 km/h (0 Bft)
24.11.2015 11:30 -4,4 C -4,7 C 83 % 1026,3 hPa 0,0 mm 0,0 km/h (0 Bft) S 180 -6,8 C 0,0 km/h (0 Bft)
24.11.2015 11:35 -4,4 C -4,8 C 87 % 1026,1 hPa 0,0 mm 0,0 km/h (0 Bft) S 180 -6,2 C 0,0 km/h (0 Bft)
24.11.2015 11:40 -4,1 C -4,5 C 88 % 1026,1 hPa 0,0 mm 0,0 km/h (0 Bft) S 180 -5,8 C 0,0 km/h (0 Bft)
24.11.2015 11:42 -4,2 C -4,6 C 88 % 1026,1 hPa 0,0 mm 0,0 km/h (0 Bft) S 180 -5,9 C 0,0 km/h (0 Bft)
24.11.2015 11:44 -4,2 C -4,6 C 88 % 1026,1 hPa 0,0 mm 0,0 km/h (0 Bft) S 180 -5,9 C 0,0 km/h (0 Bft)
24.11.2015 11:45 -4,2 C -4,6 C 88 % 1026,1 hPa 0,0 mm 0,0 km/h (0 Bft) S 180 -5,9 C 0,0 km/h (0 Bft)
24.11.2015 11:50 -4,3 C -4,4 C 83 % 1026,1 hPa 0,0 mm 0,0 km/h (0 Bft) W-SW 247 -6,7 C 0,0 km/h (0 Bft)
24.11.2015 11:55 -4,3 C -4,5 C 83 % 1025,7 hPa 0,0 mm 0,0 km/h (0 Bft) W-SW 247 -6,7 C 0,0 km/h (0 Bft)
24.11.2015 12:00 -4,3 C -4,5 C 87 % 1025,7 hPa 0,0 mm 0,0 km/h (0 Bft) W-SW 247 -6,1 C 0,0 km/h (0 Bft)
24.11.2015 12:05 -4,2 C -4,5 C 87 % 1025,7 hPa 0,0 mm 0,0 km/h (0 Bft) W-SW 247 -6,0 C 0,0 km/h (0 Bft)
24.11.2015 12:10 -4,1 C -4,4 C 87 % 1025,7 hPa 0,0 mm 0,0 km/h (0 Bft) W-SW 247 -5,9 C 0,0 km/h (0 Bft)
24.11.2015 12:15 -3,9 C -4,3 C 87 % 1025,5 hPa 0,0 mm 0,0 km/h (0 Bft) W-SW 247 -5,7 C 0,0 km/h (0 Bft)
24.11.2015 12:20 -3,8 C -4,2 C 87 % 1025,5 hPa 0,0 mm 0,0 km/h (0 Bft) W-SW 247 -5,6 C 0,0 km/h (0 Bft)
24.11.2015 12:25 -3,8 C -4,2 C 87 % 1025,5 hPa 0,0 mm 0,0 km/h (0 Bft) W-SW 247 -5,6 C 0,0 km/h (0 Bft)
24.11.2015 12:30 -3,9 C -4,3 C 87 % 1025,5 hPa 0,0 mm 0,0 km/h (0 Bft) W-SW 247 -5,7 C 0,0 km/h (0 Bft)
24.11.2015 12:35 -3,8 C -4,2 C 87 % 1025,3 hPa 0,0 mm 0,0 km/h (0 Bft) W-SW 247 -5,6 C 0,0 km/h (0 Bft)
24.11.2015 12:40 -3,7 C -4,1 C 87 % 1025,3 hPa 0,0 mm 0,0 km/h (0 Bft) W-SW 247 -5,5 C 0,0 km/h (0 Bft)
24.11.2015 12:45 -3,7 C -4,1 C 87 % 1025,3 hPa 0,0 mm 0,0 km/h (0 Bft) SW 225 -5,5 C 0,0 km/h (0 Bft)
24.11.2015 12:50 -3,5 C -3,9 C 87 % 1025,3 hPa 0,0 mm 0,0 km/h (0 Bft) SW 225 -5,3 C 0,0 km/h (0 Bft)
24.11.2015 12:55 -3,4 C -3,8 C 87 % 1025,1 hPa 0,0 mm 0,0 km/h (0 Bft) SW 225 -5,2 C 0,0 km/h (0 Bft)
24.11.2015 13:00 -3,4 C -3,8 C 87 % 1025,1 hPa 0,0 mm 0,0 km/h (0 Bft) W-SW 247 -5,2 C 0,0 km/h (0 Bft)
24.11.2015 13:05 -3,4 C -3,8 C 87 % 1025,1 hPa 0,0 mm 0,0 km/h (0 Bft) W-SW 247 -5,2 C 0,0 km/h (0 Bft)
24.11.2015 13:10 -3,3 C -3,7 C 87 % 1025,1 hPa 0,0 mm 0,0 km/h (0 Bft) SW 225 -5,1 C 0,0 km/h (0 Bft)
24.11.2015 13:15 -3,3 C -3,6 C 87 % 1024,9 hPa 0,0 mm 0,0 km/h (0 Bft) SW 225 -5,1 C 0,0 km/h (0 Bft)
24.11.2015 13:20 -3,2 C -3,5 C 87 % 1024,9 hPa 0,0 mm 0,0 km/h (0 Bft) S 180 -5,0 C 0,0 km/h (0 Bft)
24.11.2015 13:25 -3,1 C -3,4 C 87 % 1024,9 hPa 0,0 mm 0,0 km/h (0 Bft) S 180 -4,9 C 0,0 km/h (0 Bft)
24.11.2015 13:30 -2,5 C -2,7 C 87 % 1024,9 hPa 0,0 mm 0,0 km/h (0 Bft) W-SW 247 -4,4 C 0,0 km/h (0 Bft)
24.11.2015 13:35 -2,1 C -1,3 C 86 % 1024,8 hPa 0,0 mm 0,0 km/h (0 Bft) S-SO 157 -4,1 C 0,0 km/h (0 Bft)
24.11.2015 13:40 -1,1 C 1,2 C 86 % 1024,8 hPa 0,0 mm 0,0 km/h (0 Bft) S 180 -3,1 C 0,0 km/h (0 Bft)
24.11.2015 13:45 -0,5 C 2,8 C 76 % 1024,8 hPa 0,0 mm 0,0 km/h (0 Bft) W-SW 247 -4,2 C 0,0 km/h (0 Bft)
24.11.2015 13:50 -0,5 C 4,2 C 74 % 1024,8 hPa 0,0 mm 0,5 km/h (0 Bft) W-SW 247 -4,5 C 0,0 km/h (0 Bft)
24.11.2015 13:55 -0,5 C 4,9 C 73 % 1024,9 hPa 0,0 mm 0,5 km/h (0 Bft) W 270 -4,7 C 0,0 km/h (0 Bft)
24.11.2015 14:00 -1,3 C 5,5 C 71 % 1024,9 hPa 0,0 mm 0,0 km/h (0 Bft) W 270 -5,9 C 0,0 km/h (0 Bft)
24.11.2015 14:05 -1,4 C 5,8 C 70 % 1024,9 hPa 0,0 mm 0,0 km/h (0 Bft) W 270 -6,1 C 0,0 km/h (0 Bft)
24.11.2015 14:10 -1,3 C 5,7 C 68 % 1024,9 hPa 0,0 mm 0,0 km/h (0 Bft) SW 225 -6,4 C 0,0 km/h (0 Bft)
24.11.2015 14:15 -1,4 C 4,3 C 67 % 1024,8 hPa 0,0 mm 0,0 km/h (0 Bft) SW 225 -6,7 C 0,0 km/h (0 Bft)
24.11.2015 14:20 -1,6 C 2,2 C 65 % 1024,8 hPa 0,0 mm 0,0 km/h (0 Bft) W-SW 247 -7,3 C 0,0 km/h (0 Bft)
24.11.2015 14:25 -1,6 C 1,5 C 64 % 1024,8 hPa 0,0 mm 0,0 km/h (0 Bft) W-SW 247 -7,5 C 0,0 km/h (0 Bft)
24.11.2015 14:30 -1,4 C 2,2 C 63 % 1024,8 hPa 0,0 mm 0,0 km/h (0 Bft) W-SW 247 -7,5 C 0,0 km/h (0 Bft)
24.11.2015 14:35 -1,3 C 3,5 C 64 % 1024,7 hPa 0,0 mm 0,0 km/h (0 Bft) SW 225 -7,2 C 0,0 km/h (0 Bft)
24.11.2015 14:40 -0,9 C 4,3 C 64 % 1024,7 hPa 0,0 mm 0,0 km/h (0 Bft) SW 225 -6,8 C 0,0 km/h (0 Bft)
24.11.2015 14:45 -1,2 C 4,7 C 64 % 1024,7 hPa 0,0 mm 0,0 km/h (0 Bft) SW 225 -7,1 C 0,0 km/h (0 Bft)
24.11.2015 14:50 -1,3 C 5,1 C 65 % 1024,7 hPa 0,0 mm 0,0 km/h (0 Bft) SW 225 -7,0 C 0,0 km/h (0 Bft)
24.11.2015 14:55 -1,3 C 5,3 C 65 % 1024,4 hPa 0,0 mm 0,0 km/h (0 Bft) SW 225 -7,0 C 0,0 km/h (0 Bft)
24.11.2015 15:00 -1,5 C 5,4 C 65 % 1024,4 hPa 0,0 mm 0,0 km/h (0 Bft) SW 225 -7,2 C 0,0 km/h (0 Bft)
24.11.2015 15:05 -1,5 C 4,5 C 65 % 1024,4 hPa 0,0 mm 0,0 km/h (0 Bft) SW 225 -7,2 C 0,0 km/h (0 Bft)
24.11.2015 15:10 -1,6 C 1,5 C 64 % 1024,4 hPa 0,0 mm 0,0 km/h (0 Bft) SW 225 -7,5 C 0,0 km/h (0 Bft)
24.11.2015 15:15 -1,6 C 0,0 C 64 % 1024,0 hPa 0,0 mm 0,0 km/h (0 Bft) SW 225 -7,5 C 0,0 km/h (0 Bft)
24.11.2015 15:20 -1,8 C -1,6 C 63 % 1024,0 hPa 0,0 mm 0,0 km/h (0 Bft) SW 225 -7,9 C 0,0 km/h (0 Bft)
24.11.2015 15:25 -1,9 C -1,9 C 63 % 1024,0 hPa 0,0 mm 0,0 km/h (0 Bft) SW 225 -8,0 C 0,0 km/h (0 Bft)
24.11.2015 15:30 -2,0 C -2,2 C 63 % 1024,0 hPa 0,0 mm 0,0 km/h (0 Bft) SW 225 -8,1 C 0,0 km/h (0 Bft)
24.11.2015 15:35 -2,0 C -2,4 C 63 % 1023,6 hPa 0,0 mm 0,0 km/h (0 Bft) SW 225 -8,1 C 0,0 km/h (0 Bft)
24.11.2015 15:40 -2,4 C -2,5 C 64 % 1023,6 hPa 0,0 mm 0,0 km/h (0 Bft) SW 225 -8,3 C 0,0 km/h (0 Bft)
24.11.2015 15:45 -2,5 C -2,6 C 65 % 1023,6 hPa 0,0 mm 0,0 km/h (0 Bft) SW 225 -8,2 C 0,0 km/h (0 Bft)
24.11.2015 15:50 -2,6 C -2,6 C 67 % 1023,6 hPa 0,0 mm 0,0 km/h (0 Bft) SW 225 -7,9 C 0,0 km/h (0 Bft)
24.11.2015 15:55 -2,5 C -2,6 C 68 % 1023,6 hPa 0,0 mm 0,0 km/h (0 Bft) SW 225 -7,6 C 0,0 km/h (0 Bft)
24.11.2015 16:00 -2,5 C -2,7 C 68 % 1023,6 hPa 0,0 mm 0,0 km/h (0 Bft) S-SW 202 -7,6 C 0,0 km/h (0 Bft)
24.11.2015 16:05 -2,6 C -2,7 C 69 % 1023,6 hPa 0,0 mm 0,0 km/h (0 Bft) S 180 -7,5 C 0,0 km/h (0 Bft)
24.11.2015 16:10 -2,9 C -2,8 C 69 % 1023,6 hPa 0,0 mm 0,0 km/h (0 Bft) S 180 -7,8 C 0,0 km/h (0 Bft)
24.11.2015 16:15 -2,9 C -2,9 C 70 % 1023,5 hPa 0,0 mm 0,0 km/h (0 Bft) S 180 -7,6 C 0,0 km/h (0 Bft)
24.11.2015 16:20 -3,0 C -2,9 C 70 % 1023,5 hPa 0,0 mm 0,3 km/h (0 Bft) S-SO 157 -7,7 C 0,0 km/h (0 Bft)
24.11.2015 16:25 -3,0 C -3,0 C 71 % 1023,5 hPa 0,0 mm 1,0 km/h (0 Bft) S 180 -7,5 C 2,8 km/h (1 Bft)
24.11.2015 16:30 -3,2 C -3,2 C 73 % 1023,5 hPa 0,0 mm 1,3 km/h (1 Bft) S-SO 157 -7,3 C 0,0 km/h (0 Bft)
24.11.2015 16:35 -3,4 C -3,4 C 73 % 1023,3 hPa 0,0 mm 0,8 km/h (0 Bft) S-SO 157 -7,5 C 0,0 km/h (0 Bft)
24.11.2015 16:40 -3,5 C -3,7 C 73 % 1023,3 hPa 0,0 mm 0,0 km/h (0 Bft) S-SO 157 -7,6 C 0,0 km/h (0 Bft)
24.11.2015 16:45 -4,0 C -4,3 C 73 % 1023,3 hPa 0,0 mm 0,0 km/h (0 Bft) SO 135 -8,1 C 0,0 km/h (0 Bft)
24.11.2015 16:50 -4,7 C -5,0 C 72 % 1023,3 hPa 0,0 mm 0,0 km/h (0 Bft) S 180 -9,0 C 0,0 km/h (0 Bft)
24.11.2015 16:55 -4,3 C -4,8 C 73 % 1023,0 hPa 0,0 mm 0,0 km/h (0 Bft) S 180 -8,4 C 0,0 km/h (0 Bft)
24.11.2015 17:00 -4,7 C -5,2 C 78 % 1023,0 hPa 0,0 mm 0,0 km/h (0 Bft) S-SO 157 -7,9 C 0,0 km/h (0 Bft)
24.11.2015 17:05 -5,2 C -5,5 C 74 % 1023,0 hPa 0,0 mm 0,0 km/h (0 Bft) SO 135 -9,1 C 0,0 km/h (0 Bft)
24.11.2015 17:10 -5,2 C -5,4 C 74 % 1023,0 hPa 0,0 mm 0,0 km/h (0 Bft) S-SO 157 -9,1 C 0,0 km/h (0 Bft)
24.11.2015 17:15 -5,5 C -5,8 C 74 % 1023,0 hPa 0,0 mm 0,0 km/h (0 Bft) SO 135 -9,4 C 0,0 km/h (0 Bft)
24.11.2015 17:20 -5,5 C -5,9 C 75 % 1023,0 hPa 0,0 mm 0,0 km/h (0 Bft) SO 135 -9,2 C 0,0 km/h (0 Bft)
24.11.2015 17:25 -5,6 C -6,1 C 75 % 1023,0 hPa 0,0 mm 0,0 km/h (0 Bft) SO 135 -9,3 C 0,0 km/h (0 Bft)
24.11.2015 17:30 -5,3 C -5,9 C 76 % 1023,0 hPa 0,0 mm 0,0 km/h (0 Bft) SO 135 -8,8 C 0,0 km/h (0 Bft)
24.11.2015 17:35 -5,3 C -5,8 C 77 % 1022,9 hPa 0,0 mm 0,0 km/h (0 Bft) S-SO 157 -8,7 C 0,0 km/h (0 Bft)
24.11.2015 17:40 -5,4 C -6,1 C 81 % 1022,9 hPa 0,0 mm 0,0 km/h (0 Bft) S-SO 157 -8,1 C 0,0 km/h (0 Bft)
24.11.2015 17:42 -6,1 C -6,6 C 80 % 1022,9 hPa 0,0 mm 0,0 km/h (0 Bft) S 180 -9,0 C 0,0 km/h (0 Bft)
24.11.2015 17:44 -6,1 C -6,6 C 80 % 1022,9 hPa 0,0 mm 0,0 km/h (0 Bft) S 180 -9,0 C 0,0 km/h (0 Bft)
24.11.2015 17:50 -6,4 C -6,9 C 79 % 1022,9 hPa 0,0 mm 0,0 km/h (0 Bft) S 180 -9,4 C 0,0 km/h (0 Bft)
24.11.2015 17:55 -6,4 C -6,9 C 80 % 1022,8 hPa 0,0 mm 0,0 km/h (0 Bft) S 180 -9,3 C 0,0 km/h (0 Bft)
24.11.2015 18:00 -5,6 C -6,3 C 77 % 1022,8 hPa 0,0 mm 0,0 km/h (0 Bft) SO 135 -9,0 C 0,0 km/h (0 Bft)
24.11.2015 18:05 -5,8 C -6,2 C 77 % 1022,8 hPa 0,0 mm 0,0 km/h (0 Bft) S 180 -9,2 C 0,0 km/h (0 Bft)
24.11.2015 18:10 -5,8 C -6,3 C 77 % 1022,8 hPa 0,0 mm 0,0 km/h (0 Bft) SO 135 -9,2 C 0,0 km/h (0 Bft)
24.11.2015 18:15 -6,3 C -6,7 C 82 % 1022,6 hPa 0,0 mm 0,0 km/h (0 Bft) S 180 -8,9 C 0,0 km/h (0 Bft)
24.11.2015 18:20 -6,8 C -7,1 C 81 % 1022,6 hPa 0,0 mm 0,0 km/h (0 Bft) S 180 -9,5 C 0,0 km/h (0 Bft)
24.11.2015 18:25 -6,4 C -6,8 C 81 % 1022,6 hPa 0,0 mm 0,0 km/h (0 Bft) S-SO 157 -9,1 C 0,0 km/h (0 Bft)
24.11.2015 18:30 -6,3 C -6,8 C 82 % 1022,6 hPa 0,0 mm 0,0 km/h (0 Bft) S 180 -8,9 C 0,0 km/h (0 Bft)
24.11.2015 18:35 -6,1 C -6,7 C 82 % 1022,4 hPa 0,0 mm 0,0 km/h (0 Bft) S 180 -8,7 C 0,0 km/h (0 Bft)
24.11.2015 18:40 -6,0 C -6,6 C 83 % 1022,4 hPa 0,0 mm 0,0 km/h (0 Bft) SO 135 -8,4 C 0,0 km/h (0 Bft)
24.11.2015 18:45 -6,4 C -6,8 C 83 % 1022,4 hPa 0,0 mm 0,0 km/h (0 Bft) S 180 -8,8 C 0,0 km/h (0 Bft)
24.11.2015 18:50 -6,2 C -6,8 C 83 % 1022,4 hPa 0,0 mm 0,0 km/h (0 Bft) S 180 -8,6 C 0,0 km/h (0 Bft)
24.11.2015 18:55 -6,3 C -6,9 C 83 % 1022,5 hPa 0,0 mm 0,0 km/h (0 Bft) S 180 -8,7 C 0,0 km/h (0 Bft)
24.11.2015 19:00 -6,0 C -6,7 C 83 % 1022,5 hPa 0,0 mm 0,0 km/h (0 Bft) S 180 -8,4 C 0,0 km/h (0 Bft)
24.11.2015 19:05 -5,7 C -6,4 C 84 % 1022,5 hPa 0,0 mm 0,0 km/h (0 Bft) S-SO 157 -8,0 C 0,0 km/h (0 Bft)
24.11.2015 19:10 -6,5 C -6,9 C 84 % 1022,5 hPa 0,0 mm 0,0 km/h (0 Bft) S-SO 157 -8,7 C 0,0 km/h (0 Bft)
24.11.2015 19:15 -6,7 C -7,0 C 83 % 1022,6 hPa 0,0 mm 0,0 km/h (0 Bft) SO 135 -9,1 C 0,0 km/h (0 Bft)
24.11.2015 19:20 -7,0 C -7,2 C 83 % 1022,6 hPa 0,0 mm 0,0 km/h (0 Bft) S-SO 157 -9,4 C 0,0 km/h (0 Bft)
24.11.2015 19:25 -7,0 C -7,3 C 83 % 1022,6 hPa 0,0 mm 0,0 km/h (0 Bft) S 180 -9,4 C 0,0 km/h (0 Bft)
24.11.2015 19:30 -6,0 C -6,6 C 84 % 1022,6 hPa 0,0 mm 0,0 km/h (0 Bft) S 180 -8,3 C 0,0 km/h (0 Bft)
24.11.2015 19:35 -5,8 C -6,4 C 85 % 1022,5 hPa 0,0 mm 0,0 km/h (0 Bft) S 180 -7,9 C 0,0 km/h (0 Bft)
24.11.2015 19:40 -6,0 C -6,5 C 85 % 1022,5 hPa 0,0 mm 0,0 km/h (0 Bft) S-SO 157 -8,1 C 0,0 km/h (0 Bft)
24.11.2015 19:45 -6,1 C -6,6 C 85 % 1022,5 hPa 0,0 mm 0,0 km/h (0 Bft) S 180 -8,2 C 0,0 km/h (0 Bft)
24.11.2015 19:50 -6,3 C -6,7 C 84 % 1022,5 hPa 0,0 mm 0,0 km/h (0 Bft) S 180 -8,5 C 0,0 km/h (0 Bft)
24.11.2015 19:55 -6,7 C -7,0 C 84 % 1022,3 hPa 0,0 mm 0,0 km/h (0 Bft) W-SW 247 -8,9 C 0,0 km/h (0 Bft)
24.11.2015 20:00 -6,7 C -7,0 C 84 % 1022,3 hPa 0,0 mm 0,5 km/h (0 Bft) S-SO 157 -8,9 C 0,0 km/h (0 Bft)
24.11.2015 20:05 -6,5 C -6,8 C 84 % 1022,3 hPa 0,0 mm 0,5 km/h (0 Bft) S-SO 157 -8,7 C 0,0 km/h (0 Bft)
24.11.2015 20:10 -5,9 C -6,2 C 79 % 1022,3 hPa 0,0 mm 0,0 km/h (0 Bft) S 180 -8,9 C 0,0 km/h (0 Bft)
24.11.2015 20:15 -5,5 C -6,0 C 85 % 1021,7 hPa 0,0 mm 0,0 km/h (0 Bft) SO 135 -7,6 C 0,0 km/h (0 Bft)
24.11.2015 20:20 -5,5 C -5,9 C 79 % 1021,7 hPa 0,0 mm 0,0 km/h (0 Bft) S-SO 157 -8,5 C 0,0 km/h (0 Bft)
24.11.2015 20:25 -5,8 C -6,2 C 85 % 1021,7 hPa 0,0 mm 0,0 km/h (0 Bft) S 180 -7,9 C 0,0 km/h (0 Bft)
24.11.2015 20:30 -6,6 C -6,8 C 84 % 1021,7 hPa 0,0 mm 0,0 km/h (0 Bft) S 180 -8,8 C 0,0 km/h (0 Bft)
24.11.2015 20:35 -6,5 C -6,8 C 84 % 1021,5 hPa 0,0 mm 0,0 km/h (0 Bft) S 180 -8,7 C 0,0 km/h (0 Bft)
24.11.2015 20:40 -6,6 C -6,9 C 84 % 1021,5 hPa 0,0 mm 0,0 km/h (0 Bft) S-SO 157 -8,8 C 0,0 km/h (0 Bft)
24.11.2015 20:45 -6,5 C -6,9 C 84 % 1021,5 hPa 0,0 mm 0,0 km/h (0 Bft) SO 135 -8,7 C 0,0 km/h (0 Bft)
24.11.2015 20:50 -6,5 C -6,9 C 84 % 1021,5 hPa 0,0 mm 0,0 km/h (0 Bft) O-SO 112 -8,7 C 0,0 km/h (0 Bft)
24.11.2015 20:55 -6,5 C -6,9 C 84 % 1021,2 hPa 0,0 mm 0,0 km/h (0 Bft) S-SW 202 -8,7 C 0,0 km/h (0 Bft)
24.11.2015 21:00 -6,3 C -6,7 C 84 % 1021,2 hPa 0,0 mm 0,3 km/h (0 Bft) W-NW 292 -8,5 C 3,1 km/h (1 Bft)
24.11.2015 21:05 -6,2 C -6,6 C 84 % 1021,2 hPa 0,0 mm 0,5 km/h (0 Bft) W-SW 247 -8,4 C 0,0 km/h (0 Bft)
24.11.2015 21:10 -5,9 C -6,3 C 85 % 1021,2 hPa 0,0 mm 0,5 km/h (0 Bft) S 180 -8,0 C 0,0 km/h (0 Bft)
24.11.2015 21:15 -6,4 C -6,6 C 84 % 1020,9 hPa 0,0 mm 0,0 km/h (0 Bft) W-NW 292 -8,6 C 0,0 km/h (0 Bft)
24.11.2015 21:20 -6,1 C -6,5 C 84 % 1020,9 hPa 0,0 mm 0,0 km/h (0 Bft) W-SW 247 -8,4 C 0,0 km/h (0 Bft)
24.11.2015 21:25 -6,1 C -6,5 C 85 % 1020,9 hPa 0,0 mm 0,0 km/h (0 Bft) W-SW 247 -8,2 C 0,0 km/h (0 Bft)
24.11.2015 21:30 -6,5 C -6,7 C 84 % 1020,9 hPa 0,0 mm 0,0 km/h (0 Bft) SW 225 -8,7 C 0,0 km/h (0 Bft)
24.11.2015 21:35 -6,6 C -6,9 C 84 % 1021,0 hPa 0,0 mm 0,0 km/h (0 Bft) SW 225 -8,8 C 0,0 km/h (0 Bft)
24.11.2015 21:40 -6,3 C -6,7 C 84 % 1021,0 hPa 0,0 mm 0,0 km/h (0 Bft) SW 225 -8,5 C 0,0 km/h (0 Bft)
24.11.2015 21:50 -6,5 C -6,8 C 84 % 1021,0 hPa 0,0 mm 0,0 km/h (0 Bft) SW 225 -8,7 C 0,0 km/h (0 Bft)
24.11.2015 21:55 -6,1 C -6,5 C 85 % 1020,8 hPa 0,0 mm 0,0 km/h (0 Bft) SW 225 -8,2 C 0,0 km/h (0 Bft)
24.11.2015 22:00 -6,4 C -6,7 C 84 % 1020,8 hPa 0,0 mm 0,0 km/h (0 Bft) SW 225 -8,6 C 0,0 km/h (0 Bft)
24.11.2015 22:05 -6,1 C -6,5 C 85 % 1020,8 hPa 0,0 mm 0,0 km/h (0 Bft) SW 225 -8,2 C 0,0 km/h (0 Bft)
24.11.2015 22:10 -5,9 C -6,2 C 85 % 1020,8 hPa 0,0 mm 0,0 km/h (0 Bft) O-SO 112 -8,0 C 0,0 km/h (0 Bft)
24.11.2015 22:15 -5,9 C -6,1 C 80 % 1020,6 hPa 0,0 mm 0,8 km/h (0 Bft) SO 135 -8,8 C 0,0 km/h (0 Bft)
24.11.2015 22:20 -5,8 C -6,0 C 80 % 1020,6 hPa 0,0 mm 0,8 km/h (0 Bft) W 270 -8,7 C 6,5 km/h (2 Bft)
24.11.2015 22:25 -5,7 C -6,0 C 85 % 1020,6 hPa 0,0 mm 0,0 km/h (0 Bft) W 270 -7,8 C 0,0 km/h (0 Bft)
24.11.2015 22:30 -5,5 C -5,7 C 80 % 1020,6 hPa 0,0 mm 0,0 km/h (0 Bft) W 270 -8,4 C 0,0 km/h (0 Bft)
24.11.2015 22:35 -5,3 C -5,4 C 80 % 1020,4 hPa 0,0 mm 0,0 km/h (0 Bft) SW 225 -8,2 C 0,0 km/h (0 Bft)
24.11.2015 22:40 -5,2 C -5,3 C 80 % 1020,4 hPa 0,0 mm 0,0 km/h (0 Bft) W 270 -8,1 C 0,0 km/h (0 Bft)
24.11.2015 22:45 -5,0 C -5,0 C 80 % 1020,4 hPa 0,0 mm 0,0 km/h (0 Bft) S 180 -7,9 C 0,0 km/h (0 Bft)
24.11.2015 22:50 -4,8 C -4,8 C 80 % 1020,4 hPa 0,0 mm 0,0 km/h (0 Bft) O-SO 112 -7,7 C 0,0 km/h (0 Bft)
24.11.2015 22:55 -4,7 C -4,8 C 80 % 1020,0 hPa 0,0 mm 0,0 km/h (0 Bft) O-SO 112 -7,6 C 0,0 km/h (0 Bft)
24.11.2015 23:00 -4,4 C -4,6 C 81 % 1020,0 hPa 0,0 mm 0,0 km/h (0 Bft) SO 135 -7,2 C 0,0 km/h (0 Bft)
24.11.2015 23:05 -4,3 C -4,3 C 81 % 1020,0 hPa 0,0 mm 0,0 km/h (0 Bft) SO 135 -7,1 C 0,0 km/h (0 Bft)
24.11.2015 23:10 -4,0 C -4,1 C 81 % 1020,0 hPa 0,0 mm 0,0 km/h (0 Bft) O-SO 112 -6,8 C 0,0 km/h (0 Bft)
24.11.2015 23:15 -3,9 C -4,0 C 81 % 1019,6 hPa 0,0 mm 0,0 km/h (0 Bft) O-SO 112 -6,7 C 0,0 km/h (0 Bft)
24.11.2015 23:20 -3,8 C -3,9 C 81 % 1019,6 hPa 0,0 mm 0,0 km/h (0 Bft) O-SO 112 -6,6 C 0,0 km/h (0 Bft)
24.11.2015 23:25 -3,7 C -3,7 C 81 % 1019,6 hPa 0,0 mm 0,0 km/h (0 Bft) O-SO 112 -6,5 C 0,0 km/h (0 Bft)
24.11.2015 23:30 -3,4 C -3,5 C 81 % 1019,6 hPa 0,0 mm 0,5 km/h (0 Bft) O-SO 112 -6,2 C 2,6 km/h (1 Bft)
24.11.2015 23:35 -3,3 C -3,5 C 81 % 1019,5 hPa 0,0 mm 0,8 km/h (0 Bft) W-NW 292 -6,1 C 0,0 km/h (0 Bft)
24.11.2015 23:40 -3,1 C -3,5 C 85 % 1019,5 hPa 0,0 mm 1,0 km/h (0 Bft) N-NO 22 -5,3 C 0,0 km/h (0 Bft)
24.11.2015 23:42 -3,0 C -3,3 C 81 % 1019,5 hPa 0,0 mm 0,8 km/h (0 Bft) O-NO 67 -5,8 C 0,0 km/h (0 Bft)
24.11.2015 23:45 -3,0 C -3,3 C 81 % 1019,5 hPa 0,0 mm 0,8 km/h (0 Bft) O-NO 67 -5,8 C 0,0 km/h (0 Bft)
24.11.2015 23:50 -3,0 C -3,4 C 84 % 1019,5 hPa 0,0 mm 0,0 km/h (0 Bft) O-NO 67 -5,3 C 0,0 km/h (0 Bft)
24.11.2015 23:55 -2,9 C -3,3 C 84 % 1019,3 hPa 0,0 mm 0,3 km/h (0 Bft) N-NO 22 -5,2 C 0,0 km/h (0 Bft)
_ Min-Zeit 08:10 05:55 15:35 23:55 - 23:50 - - 08:10 23:55
Minimum _ -11,5 C -12,0 C 63 % 1019,3 hPa - 0,0 km/h (0 Bft) - - -14,2 C 0,0 km/h (0 Bft)
_ Max-Zeit 13:55 14:05 11:45 08:50 23:55 16:30 - - 13:40 22:20
Maximum _ -0,5 C 5,8 C 88 % 1027,3 hPa 0,0 mm 1,3 km/h
S-SO (1 Bft)
- - -3,1 C 6,5 km/h
W (2 Bft)
Durchschnitt _ -7,0 C -7,0 C 80 % 1024,2 hPa #0,0 mm 0,0 km/h (0 Bft) S-SO - -9,8 C 0,1 km/h (0 Bft)